sat.trackr.live / text

‹ back to catalog

ONEWEB-0342

NORAD 49208 · 2021-083Y

PAYLOAD ACTIVE UNKNOWN

§ Identity

Operator
Country
UK
Launch date
2021-09-14
Launch site
TYMSC
Launch vehicle
Mass (kg)
RCS (m²)

Purposes: comms

External: N2YO · Heavens-Above · Gunter

§ Orbital elements

Epoch: 2026-05-25T02:14:41.913024Z

Period
109.03 min
Inclination
87.9174°
Eccentricity
0.0001782
Mean motion
13.20772049 rev/d
Perigee alt
1,180.4 km
Apogee alt
1,183.1 km
Semi-major
7,559.9 km
B*
-9.5773e-5
RAAN
279.0410°
Arg perigee
98.7581°
Mean anomaly
261.3754°
Rev number
23,373

§ Raw data

ONEWEB-03421 49208U 21083Y   26145.09354066 -.00000026  00000+0 -95773-4 0  99922 49208  87.9174 279.0410 0001782  98.7581 261.3754 13.20772049233731

JSON: /api/v1/satellites/49208 · /tle

For live sub-satellite position, see the globe view (requires WebGL).

§ Visibility from observer

Set your observer location to see the next 7 days of passes ≥ 10°. The values pass through the URL so the page stays shareable.

No JS? Fill the form by hand. The geolocation button needs JavaScript.